Tampa Weather Center

Moon Phase Calendar



Online Cameras

 


      

Current Conditions in St. Petersburg
1/26/2021 3:43:55 PM

73°F
Feels Like 70
Clouds
Humidity
88%
Pressure
30"
Wind
17.3 mph (NNW)
Dew Point
69°F
UV Index
1/10 (Low)
Visibility
6 mi

Hourly Forecast

Date & Time Tue, Jan 26
3:00 PM
Tue, Jan 26
4:00 PM
Tue, Jan 26
5:00 PM
Tue, Jan 26
6:00 PM
Tue, Jan 26
7:00 PM
Tue, Jan 26
8:00 PM
Tue, Jan 26
9:00 PM
Tue, Jan 26
10:00 PM
Tue, Jan 26
11:00 PM
Wed, Jan 27
12:00 AM
Wed, Jan 27
1:00 AM
Wed, Jan 27
2:00 AM
Wed, Jan 27
3:00 AM
Wed, Jan 27
4:00 AM
Wed, Jan 27
5:00 AM
Wed, Jan 27
6:00 AM
Wed, Jan 27
7:00 AM
Wed, Jan 27
8:00 AM
Wed, Jan 27
9:00 AM
Wed, Jan 27
10:00 AM
Wed, Jan 27
11:00 AM
Wed, Jan 27
12:00 PM
Wed, Jan 27
1:00 PM
Wed, Jan 27
2:00 PM
Wed, Jan 27
3:00 PM
Wed, Jan 27
4:00 PM
Wed, Jan 27
5:00 PM
Wed, Jan 27
6:00 PM
Wed, Jan 27
7:00 PM
Wed, Jan 27
8:00 PM
Wed, Jan 27
9:00 PM
Wed, Jan 27
10:00 PM
Wed, Jan 27
11:00 PM
Thu, Jan 28
12:00 AM
Thu, Jan 28
1:00 AM
Thu, Jan 28
2:00 AM
Thu, Jan 28
3:00 AM
Thu, Jan 28
4:00 AM
Thu, Jan 28
5:00 AM
Thu, Jan 28
6:00 AM
Thu, Jan 28
7:00 AM
Thu, Jan 28
8:00 AM
Thu, Jan 28
9:00 AM
Thu, Jan 28
10:00 AM
Thu, Jan 28
11:00 AM
Thu, Jan 28
12:00 PM
Thu, Jan 28
1:00 PM
Thu, Jan 28
2:00 PM
Condition
Clouds

Clouds

Clouds

Clouds

Clouds

Clear

Clear

Clear

Clear

Clear

Clear

Clear

Clear

Clear

Clear

Clear

Clear

Clear

Clear

Clear

Clear

Clouds

Clouds

Clouds

Clouds

Clouds

Clouds

Clouds

Clouds

Clear

Clouds

Clouds

Clouds

Clouds

Clouds

Clouds

Clouds

Clouds

Clouds

Clouds

Clouds

Clear

Clear

Clear

Clear

Clear

Clear

Clear
Temperature 73°F71°F70°F69°F68°F68°F68°F67°F67°F67°F66°F66°F66°F66°F66°F66°F65°F65°F67°F68°F68°F69°F69°F69°F69°F70°F69°F69°F69°F69°F69°F69°F69°F68°F67°F64°F62°F61°F59°F58°F57°F56°F56°F56°F56°F56°F57°F59°F
Feels Like 75°F72°F70°F69°F68°F68°F68°F67°F67°F67°F67°F67°F67°F66°F66°F65°F64°F64°F65°F66°F67°F68°F68°F68°F68°F68°F67°F67°F67°F67°F67°F67°F67°F64°F59°F51°F48°F47°F45°F43°F42°F41°F40°F41°F41°F42°F44°F47°F
Cloudiness 90%87%70%53%42%0%0%0%0%0%0%0%0%0%0%0%0%0%0%0%2%18%26%99%100%81%64%52%43%6%41%60%50%40%33%61%37%25%19%15%12%0%0%0%0%0%0%0%
Visibility 6 mi6 mi6 mi6 mi6 mi6 mi6 mi6 mi6 mi6 mi6 mi6 mi6 mi6 mi6 mi6 mi6 mi6 mi6 mi6 mi6 mi6 mi5 mi3 mi4 mi5 mi5 mi6 mi6 mi6 mi6 mi6 mi6 mi6 mi6 mi6 mi6 mi6 mi6 mi6 mi6 mi6 mi6 mi6 mi6 mi6 mi6 mi6 mi
Precipitation 0%0%0%0%0%0%0%0%0%0%0%0%0%0%0%0%0%0%0%0%0%0%0%0%0%0%0%0%0%9%5%0%0%0%0%0%0%0%0%0%0%0%0%0%0%0%0%0%
Humidity 88%86%85%87%88%89%90%91%92%93%93%93%93%94%94%94%94%94%91%88%87%87%89%89%87%87%88%89%88%89%89%89%89%88%90%78%68%64%60%55%52%52%52%51%50%48%46%45%
Dew Point 69°F67°F65°F65°F64°F65°F65°F65°F65°F65°F65°F64°F64°F64°F64°F64°F64°F64°F64°F64°F65°F65°F65°F66°F66°F66°F66°F66°F66°F66°F66°F66°F65°F64°F64°F57°F52°F49°F46°F43°F40°F39°F38°F38°F38°F37°F37°F38°F
Pressure 30"30"30"30.03"30.03"30.03"30.03"30.03"30.03"30.03"30.03"30.03"30"30"30"30.03"30.03"30.06"30.06"30.09"30.09"30.09"30.06"30.03"30"30"30"30.03"30.03"30.06"30.06"30.06"30.06"30.06"30.06"30.09"30.09"30.12"30.15"30.18"30.21"30.24"30.27"30.27"30.3"30.3"30.27"30.24"
Wind Speed 8.8 mph8.8 mph8.4 mph8.3 mph8.6 mph8.5 mph8.6 mph8.7 mph8.6 mph7.8 mph7.1 mph7.3 mph7.6 mph8.4 mph8.7 mph9.2 mph10.3 mph10.5 mph11.6 mph11.5 mph11.9 mph11.5 mph11.4 mph11.8 mph12.3 mph13.6 mph14.4 mph13.3 mph12.9 mph13.5 mph13.8 mph13.7 mph12.9 mph16.2 mph20.8 mph26.6 mph26.3 mph24.9 mph24.3 mph23.8 mph23.6 mph23.2 mph23 mph21.4 mph20.6 mph18.9 mph17.3 mph16.5 mph
Wind
Direction
212°
SSW
205°
SSW
204°
SSW
197°
SSW
191°
S
185°
S
185°
S
187°
S
193°
SSW
202°
SSW
200°
SSW
190°
S
184°
S
177°
S
173°
S
174°
S
172°
S
175°
S
184°
S
197°
SSW
211°
SSW
224°
SW
223°
SW
219°
SW
216°
SW
209°
SSW
209°
SSW
212°
SSW
222°
SW
233°
SW
241°
WSW
257°
WSW
289°
WNW
301°
WNW
318°
NW
337°
NNW
339°
NNW
344°
NNW
351°
N
356°
N
357°
N
358°
N
359°
N

N

N

N

N

N

Daily Forecast

Date High Low Precip. Humidity
Today
Jan 26

Clear
73 °F
65 °F
0%
83%
Wednesday
Jan 27

Clouds
69 °F
65 °F
20%
85%
Thursday
Jan 28

Clear
67 °F
55 °F
0%
48%
Friday
Jan 29

Clear
63 °F
51 °F
0%
51%
Saturday
Jan 30

Clear
66 °F
56 °F
0%
62%
Sunday
Jan 31

Clouds
69 °F
62 °F
0%
67%
Monday
Feb 1

Rain
67 °F
58 °F
75%
69%
Tuesday
Feb 2

Clear
57 °F
54 °F
0%
51%
Wednesday
Feb 3

Clear
61 °F
49 °F
0%
38%
Thursday
Feb 4

Clear
69 °F
57 °F
0%
62%
Friday
Feb 5

Clear
71 °F
62 °F
0%
65%
Saturday
Feb 6

Rain
72 °F
64 °F
37%
75%
Sunday
Feb 7

Rain
72 °F
66 °F
20%
69%
Monday
Feb 8

Clear
71 °F
65 °F
0%
71%
Tuesday
Feb 9

Clear
75 °F
65 °F
0%
71%
Wednesday
Feb 10

Clear
71 °F
63 °F
0%
68%


Temperature 8-14 Day Outlook



Precipitation 8-14 Day Outlook




Quick Links
Tampa News
Tampa Photos
Tampa Videos




About Us
Contact Us
Site Map
Search Site
Advertise With Us
   
Tampa.USGulf.info
THE TAMPA WEBSITE

Copyright 2021, Coastal Town
Privacy    |    Legal